Live-Position
3D-Globus wird geladen...
Über OneWeb SL0152
Group: 3 satellites
Beschreibung wird geladen...
Nächste Überflüge
Passes for default location (London). Set your location on the main map for personalized predictions.
Höhenverlauf
Loading altitude history...
No altitude history available
Zweizeiliger Elementsatz
1 48043U 21025B 26125.07274483 .00000093 00000-0 22006-3 0 9995
2 48043 87.8951 328.8095 0001880 86.2200 273.9144 13.13471278247896
Epoch: 5. Mai 2026 •
Age: 14 hours
Aktueller Status
Höhe 1219.1 km
Geschwindigkeit 7.24 km/s
Subsatellitenpunkt -23.29°S,
52.46°E
Startdatum 25. März 2021
Alter 5.1 years
Typ internet
Startgruppe
Unknown Vehicle •
OneWeb Launch 5 •
36 satellites
OneWeb SL0115
48042
OneWeb SL0153 48044
OneWeb SL0154 48045
OneWeb SL0116 48046
OneWeb SL0150 48047
OneWeb SL0107 48048
OneWeb SL0101 48049
OneWeb SL0113 48050
OneWeb SL0112 48051
OneWeb SL0156 48052
OneWeb SL0161 48053
OneWeb SL0158 48054
OneWeb SL0157 48055
OneWeb SL0162 48056
OneWeb SL0155 48057
OneWeb SL0149 48058
OneWeb SL0148 48059
OneWeb SL0160 48060
OneWeb SL0163 48061
OneWeb SL0159 48062
...and 15 more
Technische Details
Klassifizierung Payload
Masse 148.00 kg
Trockenmasse 140.00 kg
Gesamtmasse 148.00 kg
Länge 1.30 m
Durchmesser 1.00 m
Spannweite 5.00 m
Form Trapezoid+2 pan
Hersteller ONEWUS
Bus-Typ ARROW
Phasenstatus In Orbit
Besitzer/Staat ONEWEBN/UK
Most Searched
Loading...